Simultaneous Nadir Overpasses (SNOs) Predictions

Prediction of SNOs between NOAA-19 and TERRA Satellite Orbit:

Table of predicted SNOs for the next 14.0 days since TLE Epoch: 9/19/2015
Index Date (NOAA-19) Time (NOAA-19) Lat,Lon (NOAA-19) SZA (NOAA-19 ) Date (TERRA) Time (TERRA) Lat,Lon (TERRA) SZA (TERRA ) Distance(km) Time Diff (sec)
1 09/20/2015 04:59:23 72.51, 109.73 71.30 09/20/2015 04:59:38 72.48, 109.75 71.27 3.50 15
2 09/20/2015 05:50:21 -72.37, -82.71 108.82 09/20/2015 05:49:08 -72.35, -82.85 108.85 4.54 73
3 09/22/2015 09:42:41 72.57, 38.83 72.22 09/22/2015 09:43:51 72.55, 38.82 72.20 2.70 70
4 09/22/2015 10:33:39 -72.45,-153.67 107.88 09/22/2015 10:33:20 -72.48,-153.68 107.86 2.69 19
5 09/24/2015 15:16:57 -72.54, 135.35 106.93 09/24/2015 15:17:33 -72.54, 135.38 106.93 0.92 36
6 09/24/2015 16:07:58 72.46, -57.23 73.01 09/24/2015 16:07:00 72.45, -57.15 72.99 3.12 58
7 09/26/2015 20:00:28 -73.29, 62.94 105.38 09/26/2015 20:01:34 -73.23, 65.67 105.33 87.70 66
8 09/26/2015 20:51:15 72.48,-128.05 73.89 09/26/2015 20:51:13 72.50,-128.10 73.91 3.14 2
9 09/26/2015 21:42:01 -71.81, 40.54 106.71 09/26/2015 21:40:53 -71.85, 38.36 106.77 75.78 68
10 09/29/2015 01:34:33 72.56, 161.01 74.82 09/29/2015 01:35:26 72.56, 160.93 74.83 2.52 53
11 09/29/2015 02:25:30 -72.47, -31.55 105.25 09/29/2015 02:24:55 -72.49, -31.55 105.23 2.65 35
12 10/01/2015 07:08:47 -72.52,-102.45 104.34 10/01/2015 07:09:08 -72.54,-102.52 104.32 3.08 21
